Hourly Data Report for October 12, 2014

All times are specified in Local Standard Time (LST). Add 1 hour to adjust for Daylight Saving Time where and when it is observed.

ARVIAT A
NUNAVUT

61°05'38.000" N
94°04'18.000" W
10.40 m
2300427
71174
YEK

Download Data

Hourly Data (October 2014)
Hourly Data Report for October 12, 2014
Temp Definition
°C
Dew Point Temp Definition
°C
Rel Hum Definition
%
Wind Dir Definition
10's deg

Wind Spd Definition
km/h
Visibility Definition
km
Stn Press Definition
kPa
Hmdx Definition


Wind Chill Definition


Weather Definition


TIME
00:00 Legend Double Dagger -2.2 -4.0 88 5 18 16.1 99.70   -8 LegendNANA
01:00 Legend Double Dagger -1.9 -3.5 89 6 22 16.1 99.68   -8 LegendNANA
02:00 Legend Double Dagger -1.8 -3.7 87 5 21 16.1 99.66   -8 LegendNANA
03:00 Legend Double Dagger -1.6 -3.5 87 5 24 16.1 99.67   -8 LegendNANA
04:00 Legend Double Dagger -1.7 -3.9 85 6 24 14.5 99.64   -8 LegendNANA
05:00 Legend Double Dagger -1.6 -3.5 87 6 24 14.5 99.65   -8 LegendNANA
06:00 Legend Double Dagger -1.4 -3.6 85 7 26 16.1 99.64   -8 LegendNANA
07:00 Legend Double Dagger -1.3 -3.6 85 7 18 16.1 99.69   -7 LegendNANA
08:00 Legend Double Dagger -0.9 -3.4 83 8 21 16.1 99.70   -7 LegendNANA
09:00 Legend Double Dagger -0.5 -2.9 84 8 17 16.1 99.74   -5 LegendNANA
10:00 Legend Double Dagger -0.4 -2.9 83 7 18 16.1 99.76   -5 LegendNANA
11:00 Legend Double Dagger 0.0 -2.6 82 8 18 16.1 99.75   -5 LegendNANA
12:00 Legend Double Dagger 0.2 -2.5 82 7 22 16.1 99.76     LegendNANA
13:00 Legend Double Dagger 0.5 -2.3 81 7 21 16.1 99.77     LegendNANA
14:00 Legend Double Dagger 0.9 -2.3 79 7 24 16.1 99.78     LegendNANA
15:00 Legend Double Dagger 1.1 -2.1 79 6 26 16.1 99.81     LegendNANA
16:00 Legend Double Dagger 1.1 -1.8 81 8 26 16.1 99.87     LegendNANA
17:00 Legend Double Dagger 1.0 -0.9 87 7 22 16.1 99.92     LegendNANA
18:00 Legend Double Dagger 0.9 -0.9 88 7 21 16.1 99.98     LegendNANA
19:00 Legend Double Dagger 0.4 0.0 97 8 21 2.8 100.03     Snow
20:00 Legend Double Dagger 0.4 -0.2 96 6 18 12.9 100.06     Rain
21:00 Legend Double Dagger 1.0 -0.9 87 7 21 16.1 100.07     LegendNANA
22:00 Legend Double Dagger 0.9 -0.4 91 7 17 16.1 100.09     LegendNANA
23:00 Legend Double Dagger 0.9 -0.4 91 7 18 16.1 100.11     Rain,Snow

Notes on Data Quality.

Legend

  • E = Estimated
  • M = Missing
  • NA = Not Available
  • ‡ = Partner data that is not subject to review by the National Climate Archives
Date modified: